Flag Weather past 2 weeks in Québec, Quebec, Canada

Now
45 °F

Scattered clouds.


Feels Like: 41 °F
Forecast: 36 / 49 °F
Wind: 6 mph from Northeast

Location: Quebec Weather Station

Current Time: Nov 24, 2014 at 3:26:55 PM

Latest Report: Nov 24, 2014 at 3:00 PM


Visibility: 30 mi

Pressure: 29.36 "Hg

Humidity: 93%

Dew point: 43 °F

Location of QuébecLocation

Historic Weather in Québec — Graph

°F

Québec temperature yesterday

Maximum temperature yesterday: 37 °F (at 3:00 PM)
Minimum temperature yesterday: 32 °F (at 12:00 AM)
Average temperature yesterday: 35 °F

Past Weeks' High & Low Weather Summary

 TemperatureHumidityPressure
High45 °F (Nov 24, 12:00 PM)100% (Nov 12, 2:00 PM)30.27 "Hg (Nov 12, 2:00 PM)
Low5 °F (Nov 22, 4:00 AM)46% (Nov 10, 2:00 PM)29.29 "Hg (Nov 18, 6:00 AM)
Average29 °F79%29.92 "Hg
* Reported Nov 9 2:00 PM — Nov 24 2:00 PM, Québec, Weather by CustomWeather, © 2014

Note: Actual official high and low records may vary slightly from our data, if they occured in-between our weather recording intervals... More about our weather records

Advertising

Québec weather history for previous 24 hours

 ConditionsComfort  
Time TempWeatherWind HumidityBarometerVisibility
2:00 PM
Nov 24
45 °FBroken clouds.6 mph93%29.39 "Hg15 mi
1:00 PM45 °FBroken clouds.8 mph93%29.41 "Hg15 mi
12:00 PM45 °FLight rain. Fog.9 mph93%29.46 "Hg2 mi
11:46 AM43 °FLight rain. Fog.7 mph93%29.48 "Hg2 mi
11:00 AM43 °FLight rain. Fog.14 mph93%29.53 "Hg3 mi
10:00 AM41 °FLight rain. Fog.14 mph93%29.60 "Hg1 mi
9:00 AM39 °FLight rain. Fog.17 mph93%29.65 "Hg1 mi
8:00 AM37 °FLight rain. Fog.13 mph93%29.74 "Hg1 mi
7:00 AM37 °FLight rain. Cloudy.13 mph93%29.79 "Hg2 mi
6:00 AM37 °FFog.9 mph93%29.83 "Hg2 mi
5:00 AM36 °FFog.9 mph100%29.86 "Hg1 mi
4:00 AM36 °FFog.7 mph100%29.88 "Hg1 mi
3:00 AM36 °FSprinkles. Fog.10 mph100%29.93 "Hg1 mi
2:00 AM36 °FFog.7 mph93%29.96 "Hg1 mi
1:50 AM36 °FFog.7 mph100%29.98 "Hg1 mi
1:00 AM36 °FFog.6 mph93%29.99 "Hg4 mi
12:00 AM36 °FDrizzle. Fog.2 mph100%30.01 "Hg1 mi
11:51 PM
Nov 23
36 °FDrizzle. Fog.2 mph93%30.01 "Hg1 mi
11:00 PM36 °FDrizzle. Fog.6 mph93%30.03 "Hg0 mi
10:00 PM34 °FFog.5 mph100%30.05 "Hg1 mi
9:00 PM34 °FDrizzle. Fog.6 mph100%30.05 "Hg1 mi
8:00 PM34 °FFog.5 mph100%30.06 "Hg0 mi
7:00 PM34 °FFog.5 mph100%30.06 "Hg0 mi
6:00 PM36 °FFog.No wind93%30.06 "Hg5 mi
5:00 PM36 °FFog.2 mph93%30.06 "Hg5 mi
4:00 PM36 °FFog.2 mph100%30.06 "Hg3 mi
3:00 PM37 °FFog.3 mph93%30.06 "Hg2 mi
Weather by CustomWeather, © 2014

See weather overviewHow to use our weather pages